Location: Hungerford
(51.4167°N, 1.5167°W)
Time: 10:30:58
(UTC+00:00)

Cosmos 1048 Rocket - Pass Details

Date: 21 January 2021
Orbit: 743 x 791 km, 74.0° (Epoch: 07 March)

Event Time Altitude Azimuth Distance (km) Brightness Sun altitude
Rises 17:52:33 0° 340° (NNW) 3,198 7.3 -11.5°
Reaches altitude 10° 17:56:42 10° 13° (NNE) 2,269 6.2 -12.2°
Maximum altitude 17:58:30 12° 34° (NNE) 2,151 5.9 -12.4°
Enters shadow 17:58:57 12° 39° (NE) 2,158 5.8 -12.5°
